BCS81 LKTB-EDDP

Flight info

Callsign BCS81
Flight time 0h 41m
Altitude 30000
Route TUMKA DCT VLM DCT LEGAZ DCT BEFRE DCT IVQOQ T951 YAWOY YAWOY1V
Aircraft A306/H-SDE1FGHIRWXYZ/HB1

Departure

Time 2026-04-26 21:51
Airport Brno-Tuřany Airport (LKTB)

Arrival

Time 2026-04-26 22:32
Airport Leipzig/Halle Airport (EDDP)
Time Latitude Longitude Altitude Speed Heading
2026-04-26 21:41 49.15441 16.68553 808 ft 0 kts 191°
2026-04-26 21:47 49.15433 16.68550 808 ft 2 kts 191°
2026-04-26 21:47 49.15408 16.68524 808 ft 4 kts 237°
2026-04-26 21:48 49.15403 16.68475 808 ft 7 kts 270°
2026-04-26 21:48 49.15411 16.68366 808 ft 12 kts 277°
2026-04-26 21:48 49.15422 16.68226 808 ft 13 kts 278°
2026-04-26 21:48 49.15436 16.68083 808 ft 15 kts 278°
2026-04-26 21:49 49.15450 16.67912 808 ft 17 kts 277°
2026-04-26 21:49 49.15464 16.67718 808 ft 18 kts 266°
2026-04-26 21:49 49.15384 16.67621 806 ft 16 kts 187°
2026-04-26 21:49 49.15289 16.67657 803 ft 13 kts 121°
2026-04-26 21:50 49.15262 16.67907 804 ft 50 kts 97°
2026-04-26 21:50 49.15218 16.68424 802 ft 94 kts 97°
2026-04-26 21:50 49.15064 16.70253 816 ft 165 kts 97°
2026-04-26 21:50 49.14888 16.72080 1298 ft 186 kts 97°
2026-04-26 21:51 49.14717 16.74041 2222 ft 186 kts 96°
2026-04-26 21:51 49.14716 16.76092 2782 ft 205 kts 76°
2026-04-26 21:51 49.15524 16.78008 3076 ft 233 kts 37°
2026-04-26 21:51 49.17088 16.78765 3612 ft 251 kts 359°
2026-04-26 21:52 49.18735 16.77880 4459 ft 257 kts 325°
2026-04-26 21:52 49.20096 16.76106 5471 ft 256 kts 319°
2026-04-26 21:52 49.21436 16.74317 6480 ft 256 kts 320°
2026-04-26 21:52 49.22825 16.72598 7364 ft 258 kts 321°
2026-04-26 21:53 49.24255 16.70929 8286 ft 260 kts 322°
2026-04-26 21:53 49.25713 16.69283 9216 ft 262 kts 322°
2026-04-26 21:53 49.27194 16.67644 10127 ft 264 kts 322°
2026-04-26 21:53 49.28576 16.65805 10735 ft 274 kts 309°
2026-04-26 21:54 49.29498 16.63142 11015 ft 295 kts 290°
2026-04-26 21:54 49.30143 16.60051 11304 ft 314 kts 287°
2026-04-26 21:54 49.30783 16.56750 11563 ft 332 kts 287°
2026-04-26 21:54 49.31465 16.53278 11837 ft 348 kts 288°
2026-04-26 21:55 49.32186 16.49662 12215 ft 359 kts 288°
2026-04-26 21:55 49.32926 16.45973 12795 ft 365 kts 288°
2026-04-26 21:55 49.33679 16.42235 13424 ft 369 kts 288°
2026-04-26 21:55 49.34438 16.38468 14058 ft 372 kts 288°
2026-04-26 21:56 49.35195 16.34707 14629 ft 375 kts 288°
2026-04-26 21:56 49.35967 16.30872 15234 ft 378 kts 288°
2026-04-26 21:56 49.36745 16.27007 15831 ft 380 kts 288°
2026-04-26 21:56 49.37510 16.23113 16421 ft 383 kts 286°
2026-04-26 21:57 49.38076 16.19096 17011 ft 387 kts 282°
2026-04-26 21:57 49.38543 16.15019 17599 ft 389 kts 281°
2026-04-26 21:57 49.39000 16.10910 18178 ft 392 kts 281°
2026-04-26 21:57 49.39459 16.06774 18710 ft 395 kts 281°
2026-04-26 21:58 49.39921 16.02611 19176 ft 397 kts 281°
2026-04-26 21:58 49.40394 15.98473 19624 ft 400 kts 282°
2026-04-26 21:58 49.41119 15.94347 20077 ft 402 kts 290°
2026-04-26 21:58 49.42213 15.90393 20522 ft 404 kts 295°
2026-04-26 21:59 49.43457 15.86515 20963 ft 406 kts 297°
2026-04-26 21:59 49.44781 15.82655 21395 ft 409 kts 297°
2026-04-26 21:59 49.46137 15.78793 21765 ft 413 kts 297°
2026-04-26 21:59 49.47505 15.74895 22159 ft 416 kts 297°
2026-04-26 22:00 49.48874 15.70960 22580 ft 418 kts 297°
2026-04-26 22:00 49.50219 15.67048 22993 ft 420 kts 296°
2026-04-26 22:00 49.51579 15.63059 23383 ft 423 kts 296°
2026-04-26 22:00 49.52941 15.59038 23759 ft 425 kts 296°
2026-04-26 22:01 49.54308 15.54984 24088 ft 428 kts 296°
2026-04-26 22:01 49.55680 15.50907 24397 ft 430 kts 296°
2026-04-26 22:01 49.57056 15.46811 24707 ft 431 kts 296°
2026-04-26 22:01 49.58438 15.42692 25002 ft 433 kts 296°
2026-04-26 22:02 49.59704 15.38468 25244 ft 436 kts 290°
2026-04-26 22:02 49.60320 15.35515 25422 ft 437 kts 284°
2026-04-26 22:02 49.61023 15.29404 25818 ft 439 kts 282°
2026-04-26 22:02 49.61904 15.24890 26110 ft 441 kts 289°
2026-04-26 22:03 49.63083 15.20512 26256 ft 443 kts 295°
2026-04-26 22:03 49.64654 15.16478 26277 ft 435 kts 305°
2026-04-26 22:03 49.66629 15.12991 26289 ft 430 kts 313°
2026-04-26 22:03 49.68794 15.09846 26290 ft 428 kts 316°
2026-04-26 22:04 49.71075 15.06874 26276 ft 428 kts 319°
2026-04-26 22:04 49.73397 15.04005 26270 ft 428 kts 319°
2026-04-26 22:04 49.75710 15.01193 26282 ft 429 kts 320°
2026-04-26 22:04 49.78062 14.98325 26280 ft 430 kts 319°
2026-04-26 22:05 49.80405 14.95437 26280 ft 431 kts 319°
2026-04-26 22:05 49.82736 14.92535 26277 ft 431 kts 319°
2026-04-26 22:05 49.85063 14.89610 26284 ft 431 kts 319°
2026-04-26 22:05 49.87385 14.86677 26275 ft 431 kts 319°
2026-04-26 22:06 49.89708 14.83732 26285 ft 431 kts 319°
2026-04-26 22:06 49.92023 14.80792 26281 ft 431 kts 319°
2026-04-26 22:06 49.94308 14.77888 26279 ft 430 kts 319°
2026-04-26 22:06 49.96616 14.74953 26281 ft 427 kts 319°
2026-04-26 22:07 49.98906 14.72039 26281 ft 426 kts 319°
2026-04-26 22:07 50.01198 14.69119 26298 ft 426 kts 319°
2026-04-26 22:07 50.03492 14.66193 26296 ft 426 kts 319°
2026-04-26 22:07 50.05783 14.63266 26284 ft 426 kts 319°
2026-04-26 22:08 50.08073 14.60336 26282 ft 426 kts 319°
2026-04-26 22:08 50.10362 14.57404 26280 ft 426 kts 319°
2026-04-26 22:08 50.12646 14.54475 26282 ft 426 kts 319°
2026-04-26 22:08 50.14907 14.51572 26282 ft 426 kts 319°
2026-04-26 22:09 50.17193 14.48632 26285 ft 426 kts 319°
2026-04-26 22:09 50.19479 14.45689 26281 ft 426 kts 319°
2026-04-26 22:09 50.21763 14.42745 26285 ft 426 kts 319°
2026-04-26 22:09 50.24051 14.39793 26286 ft 426 kts 319°
2026-04-26 22:10 50.26336 14.36840 26286 ft 426 kts 319°
2026-04-26 22:10 50.28621 14.33883 26288 ft 426 kts 319°
2026-04-26 22:10 50.30903 14.30926 26273 ft 426 kts 319°
2026-04-26 22:10 50.33151 14.28011 26289 ft 426 kts 319°
2026-04-26 22:11 50.35433 14.25046 26288 ft 426 kts 318°
2026-04-26 22:11 50.37710 14.22085 26282 ft 426 kts 318°
2026-04-26 22:11 50.39992 14.19114 26290 ft 427 kts 318°
2026-04-26 22:11 50.42295 14.16109 26293 ft 434 kts 318°
2026-04-26 22:12 50.44631 14.13057 26291 ft 440 kts 318°
2026-04-26 22:12 50.46998 14.09960 26293 ft 446 kts 318°
2026-04-26 22:12 50.49388 14.06831 26285 ft 449 kts 318°
2026-04-26 22:12 50.51758 14.03727 26288 ft 449 kts 318°
2026-04-26 22:13 50.54151 14.00588 26305 ft 448 kts 318°
2026-04-26 22:13 50.56540 13.97448 26294 ft 447 kts 318°
2026-04-26 22:13 50.58886 13.94364 26061 ft 431 kts 318°
2026-04-26 22:13 50.61150 13.91386 25838 ft 416 kts 318°
2026-04-26 22:14 50.63338 13.88504 25443 ft 407 kts 318°
2026-04-26 22:14 50.65494 13.85654 24876 ft 403 kts 318°
2026-04-26 22:14 50.67627 13.82829 24342 ft 399 kts 317°
2026-04-26 22:14 50.69711 13.80066 23814 ft 395 kts 317°
2026-04-26 22:15 50.71802 13.77290 23246 ft 390 kts 317°
2026-04-26 22:15 50.73860 13.74555 22753 ft 384 kts 317°
2026-04-26 22:15 50.75894 13.71850 22232 ft 380 kts 317°
2026-04-26 22:15 50.77909 13.69166 21719 ft 377 kts 318°
2026-04-26 22:16 50.79902 13.66509 21214 ft 373 kts 318°
2026-04-26 22:16 50.81879 13.63870 20721 ft 370 kts 318°
2026-04-26 22:16 50.83837 13.61254 20208 ft 368 kts 318°
2026-04-26 22:16 50.85789 13.58644 19664 ft 366 kts 318°
2026-04-26 22:17 50.87699 13.56086 19194 ft 364 kts 318°
2026-04-26 22:17 50.89625 13.53507 18691 ft 361 kts 318°
2026-04-26 22:17 50.91549 13.50924 17888 ft 365 kts 318°
2026-04-26 22:17 50.93484 13.48323 17261 ft 364 kts 318°
2026-04-26 22:18 50.95402 13.45744 16778 ft 359 kts 318°
2026-04-26 22:18 50.97296 13.43195 16273 ft 355 kts 318°
2026-04-26 22:18 50.99171 13.40667 15756 ft 352 kts 318°
2026-04-26 22:18 51.01030 13.38159 15251 ft 349 kts 318°
2026-04-26 22:19 51.02846 13.35706 14771 ft 346 kts 318°
2026-04-26 22:19 51.04669 13.33240 14280 ft 343 kts 319°
2026-04-26 22:19 51.06482 13.30786 13713 ft 341 kts 319°
2026-04-26 22:19 51.08280 13.28350 13197 ft 338 kts 319°
2026-04-26 22:20 51.10060 13.25937 12717 ft 334 kts 319°
2026-04-26 22:20 51.11228 13.24352 12398 ft 331 kts 319°
2026-04-26 22:20 51.13558 13.21186 11758 ft 327 kts 319°
2026-04-26 22:20 51.15283 13.18838 11283 ft 325 kts 319°
2026-04-26 22:21 51.16993 13.16510 10811 ft 323 kts 319°
2026-04-26 22:21 51.18668 13.14225 10419 ft 318 kts 319°
2026-04-26 22:21 51.20312 13.11982 10339 ft 303 kts 319°
2026-04-26 22:21 51.21877 13.09846 10234 ft 290 kts 319°
2026-04-26 22:22 51.23379 13.07794 10114 ft 279 kts 319°
2026-04-26 22:22 51.24823 13.05818 9976 ft 268 kts 319°
2026-04-26 22:22 51.26230 13.03890 9614 ft 268 kts 319°
2026-04-26 22:22 51.27645 13.01947 9199 ft 268 kts 319°
2026-04-26 22:23 51.29057 13.00009 8827 ft 267 kts 319°
2026-04-26 22:23 51.30463 12.98078 8463 ft 266 kts 319°
2026-04-26 22:23 51.31842 12.96180 8114 ft 265 kts 319°
2026-04-26 22:23 51.33237 12.94261 7758 ft 264 kts 319°
2026-04-26 22:24 51.34628 12.92346 7383 ft 264 kts 319°
2026-04-26 22:24 51.36017 12.90433 7014 ft 263 kts 319°
2026-04-26 22:24 51.37400 12.88526 6652 ft 262 kts 319°
2026-04-26 22:24 51.38780 12.86623 6277 ft 261 kts 319°
2026-04-26 22:25 51.40149 12.84733 5931 ft 259 kts 319°
2026-04-26 22:25 51.41510 12.82853 5594 ft 257 kts 319°
2026-04-26 22:25 51.42707 12.80794 5301 ft 255 kts 304°
2026-04-26 22:25 51.43433 12.78227 5011 ft 254 kts 282°
2026-04-26 22:26 51.43577 12.75412 4671 ft 254 kts 272°
2026-04-26 22:26 51.43604 12.72582 4340 ft 254 kts 269°
2026-04-26 22:26 51.43513 12.69770 4104 ft 249 kts 266°
2026-04-26 22:26 51.43386 12.67052 3977 ft 240 kts 266°
2026-04-26 22:27 51.43262 12.64451 3888 ft 229 kts 265°
2026-04-26 22:27 51.43136 12.61974 3755 ft 218 kts 265°
2026-04-26 22:27 51.43011 12.59599 3443 ft 217 kts 265°
2026-04-26 22:27 51.42886 12.57190 3100 ft 216 kts 265°
2026-04-26 22:28 51.42768 12.54838 3001 ft 208 kts 265°
2026-04-26 22:28 51.42656 12.52537 3000 ft 207 kts 265°
2026-04-26 22:28 51.42551 12.50235 2998 ft 207 kts 265°
2026-04-26 22:28 51.42448 12.47929 2998 ft 208 kts 265°
2026-04-26 22:29 51.42345 12.45675 2979 ft 196 kts 265°
2026-04-26 22:29 51.42243 12.43536 2780 ft 191 kts 265°
2026-04-26 22:29 51.42145 12.41449 2530 ft 182 kts 265°
2026-04-26 22:29 51.42055 12.39533 2278 ft 167 kts 265°
2026-04-26 22:30 51.41971 12.37766 2026 ft 151 kts 265°
2026-04-26 22:30 51.41896 12.36169 1823 ft 140 kts 265°
2026-04-26 22:30 51.41824 12.34621 1645 ft 139 kts 265°
2026-04-26 22:30 51.41759 12.33084 1439 ft 138 kts 266°
2026-04-26 22:31 51.41687 12.31545 1232 ft 139 kts 265°
2026-04-26 22:31 51.41607 12.29989 1052 ft 141 kts 266°
2026-04-26 22:31 51.41537 12.28419 880 ft 142 kts 266°
2026-04-26 22:31 51.41461 12.26860 678 ft 142 kts 266°
2026-04-26 22:32 51.41386 12.25290 514 ft 140 kts 267°
2026-04-26 22:32 51.41319 12.23839 473 ft 113 kts 266°
2026-04-26 22:32 51.41274 12.22859 470 ft 64 kts 265°
2026-04-26 22:32 51.41245 12.22345 466 ft 40 kts 265°
2026-04-26 22:33 51.41211 12.21923 463 ft 35 kts 252°
2026-04-26 22:33 51.41074 12.21661 465 ft 6 kts 143°
2026-04-26 22:33 51.41060 12.21693 466 ft 2 kts 115°
2026-04-26 22:34 51.41053 12.21747 466 ft 11 kts 97°
2026-04-26 22:34 51.41060 12.21948 462 ft 20 kts 85°
2026-04-26 22:34 51.41066 12.22081 465 ft 13 kts 85°
2026-04-26 22:34 51.41075 12.22276 465 ft 19 kts 87°
2026-04-26 22:35 51.41085 12.22483 466 ft 18 kts 86°
2026-04-26 22:35 51.41093 12.22662 468 ft 15 kts 85°
2026-04-26 22:35 51.41102 12.22845 468 ft 15 kts 85°
2026-04-26 22:35 51.41109 12.22990 475 ft 11 kts 85°
2026-04-26 22:36 51.41114 12.23111 477 ft 12 kts 86°
2026-04-26 22:36 51.41121 12.23250 475 ft 12 kts 85°
2026-04-26 22:36 51.41127 12.23388 481 ft 16 kts 85°
2026-04-26 22:36 51.41138 12.23588 478 ft 19 kts 85°
2026-04-26 22:37 51.41147 12.23796 472 ft 18 kts 87°
2026-04-26 22:37 51.41155 12.23986 478 ft 17 kts 85°
2026-04-26 22:37 51.41166 12.24175 476 ft 17 kts 85°
2026-04-26 22:37 51.41167 12.24346 476 ft 13 kts 105°
2026-04-26 22:38 51.41102 12.24387 474 ft 11 kts 210°
2026-04-26 22:38 51.41081 12.24286 477 ft 9 kts 263°
2026-04-26 22:38 51.41047 12.24224 471 ft 8 kts 200°
2026-04-26 22:38 51.40979 12.24222 473 ft 10 kts 174°
2026-04-26 22:39 51.40904 12.24233 472 ft 11 kts 174°
2026-04-26 22:39 51.40835 12.24254 464 ft 6 kts 131°
2026-04-26 22:39 51.40832 12.24318 466 ft 7 kts 85°
2026-04-26 22:39 51.40834 12.24350 468 ft 0 kts 85°